This is the latest recevied weather packets stored in our database for station/object KC3ELT-10. If no packets are shown the sender has not sent any weather packets the latest 10 day(s).
| Time | Temp. | Humidity | Pressure | Rain* | Wind** | Luminosity | Snow |
|---|---|---|---|---|---|---|---|
| 1778064179 | 16.11° C | 77% | 1002 hPa | 0 mm | 2.68 m/s, 216° | - | - |
| 1778063879 | 16.11° C | 77% | 1002 hPa | 0 mm | 3.13 m/s, 163° | - | - |
| 1778063579 | 16.11° C | 77% | 1002 hPa | 0 mm | 1.79 m/s, 188° | - | - |
| 1778063279 | 16.67° C | 77% | 1002 hPa | 0 mm | 1.34 m/s, 131° | - | - |
| 1778062979 | 16.67° C | 77% | 1002 hPa | 0 mm | 0.89 m/s, 204° | - | - |
| 1778062679 | 16.67° C | 77% | 1002 hPa | 0 mm | 3.13 m/s, 225° | - | - |
| 1778062379 | 16.67° C | 76% | 1001.9 hPa | 0 mm | 1.34 m/s, 172° | - | - |
| 1778062079 | 16.67° C | 76% | 1001.9 hPa | 0 mm | 0.89 m/s, 170° | - | - |
| 1778061779 | 16.67° C | 76% | 1001.9 hPa | 0 mm | 4.92 m/s, 210° | - | - |
| 1778061479 | 16.67° C | 76% | 1001.9 hPa | 0 mm | 4.02 m/s, 152° | - | - |
| 1778061179 | 16.67° C | 76% | 1001.9 hPa | 0 mm | 4.92 m/s, 220° | - | - |
| 1778060879 | 16.67° C | 76% | 1001.9 hPa | 0 mm | 2.24 m/s, 181° | - | - |
| 1778060579 | 16.67° C | 76% | 1001.6 hPa | 0 mm | 3.13 m/s, 224° | - | - |
| 1778060279 | 16.67° C | 76% | 1001.6 hPa | 0 mm | 1.34 m/s, 176° | - | - |
| 1778059979 | 16.67° C | 76% | 1001.6 hPa | 0 mm | 4.02 m/s, 162° | - | - |
| 1778059679 | 16.67° C | 76% | 1001.5 hPa | 0 mm | 2.24 m/s, 108° | - | - |
| 1778059379 | 16.67° C | 76% | 1001.5 hPa | 0 mm | 2.24 m/s, 207° | - | - |
| 1778059079 | 16.67° C | 76% | 1001.5 hPa | 0 mm | 5.36 m/s, 243° | - | - |
| 1778058779 | 17.22° C | 76% | 1001.9 hPa | 0 mm | 4.02 m/s, 150° | - | - |
| 1778058479 | 16.67° C | 76% | 1001.9 hPa | 0 mm | 4.02 m/s, 232° | - | - |
| 1778058179 | 17.22° C | 75% | 1001.9 hPa | 0 mm | 1.34 m/s, 193° | - | - |
| 1778057879 | 17.22° C | 75% | 1002 hPa | 0 mm | 3.13 m/s, 177° | - | - |
| 1778057579 | 17.22° C | 75% | 1002 hPa | 0 mm | 1.34 m/s, 196° | - | - |
| 1778057279 | 16.67° C | 75% | 1002 hPa | 0 mm | 1.79 m/s, 181° | - | - |
| 1778056979 | 17.22° C | 75% | 1002 hPa | 0 mm | 1.34 m/s, 201° | - | - |
* Rain latest hour (hover to see other rain measurements)
** Current wind speed in m/s (hover to see current wind gust speed)